RH
100 93 93 93 97 100 98 88 99 100 70 87 98 100 100 87 67 76 100 100 86 82 67 86 72 62 48 46 50 40 27 28 19 16 15 17 15 14 15 15 13 12 10
100 100 100 100 99 100 100 100 96 100 100 100 100 100 100 100 81 97 87 95 76 83 67 80 100 100 80 82 85 63 47 71 23 19 18 16 17 13 15 20 16 18 19
67 64 70 74 96 100 100 100 100 89 97 98 100 100 100 100 100 81 100 100 100 79 100 79 100 100 100 92 57 64 69 64 88 47 34 19 19 20 16 20 19 21 27
100 100 100 97 86 100 94 100 100 82 84 65 65 92 100 100 100 94 94 100 100 100 100 100 100 83 100 98 100 87 57 80 91 92 70 47 29 20 20 27 30 28 28
79 79 65 73 80 73 70 71 91 96 93 97 73 65 93 100 100 100 100 100 100 100 100 100 100 80 60 63 95 100 89 87 70 91 92 73 52 34 25 40 41 46 46
46 55 80 88 79 69 49 40 50 67 82 86 72 66 67 97 100 100 100 95 75 98 100 100 100 100 100 73 96 81 98 100 100 100 100 65 78 46 35 43 36 62 56
84 51 59 71 74 73 78 63 40 42 71 83 75 75 65 66 79 100 100 85 88 100 100 100 100 100 100 100 79 71 72 96 100 100 100 100 87 72 51 65 49 77 90
70 54 54 61 68 77 94 97 70 59 68 31 38 58 56 60 59 66 97 88 64 100 100 100 100 100 100 100 99 81 91 88 91 96 99 100 100 100 80 88 92 74 79
60 58 60 34 31 42 64 83 90 83 79 88 66 64 42 46 35 93 80 56 75 100 85 100 100 100 92 95 72 80 89 63 76 85 96 100 100 100 100 100 100 100 90
99 100 94 93 82 60 62 51 63 64 57 48 71 81 90 36 38 100 100 78 86 75 71 100 100 100 100 100 97 100 100 89 73 69 75 98 100 100 100 100 100 100 100
82 61 63 80 69 86 88 98 88 91 100 100 99 77 49 34 36 83 100 65 77 70 72 100 99 98 100 100 98 63 41 89 92 88 72 90 99 100 100 100 100 100 100
65 77 81 96 100 100 95 84 99 100 98 100 92 100 100 91 58 24 23 59 100 89 60 76 86 100 99 100 100 100 94 99 73 93 92 92 84 80 93 95 76 99 100
51 48 44 48 71 79 92 99 87 85 81 64 50 47 44 58 77 54 27 20 100 100 100 92 100 100 100 90 100 100 100 100 100 90 98 60 59 59 50 57 75 100 100
41 46 55 57 42 36 33 32 28 24 24 24 24 23 25 29 34 44 43 45 23 29 95 38 100 67 100 93 100 100 100 100 100 100 100 58 41 34 40 41 34 40 75
55 43 39 34 25 21 17 12 12 13 12 11 11 12 13 21 30 42 58 42 99 29 16 13 20 50 87 100 100 100 100 100 100 100 100 100 87 71 50 64 61 34 30
80 54 27 22 22 14 10 8 7 7 7 7 7 7 8 11 16 58 38 98 99 96 39 13 15 35 79 71 86 100 100 100 100 100 100 100 100 94 49 67 58 65 36
34 26 18 18 14 10 7 6 6 6 6 6 6 6 7 9 12 16 22 92 83 100 69 44 17 16 57 29 90 100 98 100 100 100 100 100 100 100 82 69 78 42 64
24 16 19 15 10 7 6 6 6 5 5 5 5 5 6 9 10 16 33 53 54 87 71 86 50 28 46 20 46 100 97 100 100 100 100 100 100 100 98 83 86 97 75
19 18 16 12 8 7 6 6 5 5 4 4 5 4 5 8 10 13 20 50 66 72 84 95 100 100 89 28 75 100 98 100 100 100 100 100 100 100 86 100 94 100 100
20 15 14 11 9 7 7 6 5 5 6 6 6 6 5 6 8 11 16 47 65 80 100 100 100 100 100 90 100 100 100 88 100 100 100 100 100 100 94 79 100 100 100
22 19 13 14 9 8 7 6 6 6 6 6 6 6 6 7 8 10 12 33 79 100 100 100 100 100 100 100 100 92 100 100 100 88 100 100 100 100 100 81 100 100 100
25 18 16 17 10 9 8 8 7 8 6 6 5 6 8 8 8 11 15 19 39 89 100 100 100 100 100 100 100 100 100 100 100 100 100 98 100 100 100 100 100 100 100
24 19 19 17 12 10 10 9 9 9 7 6 6 6 8 9 11 12 16 19 20 52 100 100 100 100 100 100 99 100 100 100 100 100 100 100 100 100 100 100 100 100 100
24 21 19 14 12 12 12 11 10 11 9 6 6 6 8 10 10 12 15 18 36 68 98 100 100 100 100 100 100 100 100 100 100 100 100 100 100 100 100 100 100 100 100
24 22 17 13 13 12 13 12 12 12 12 8 6 6 8 10 13 13 13 18 22 33 48 97 100 100 100 100 100 100 100 100 100 100 100 100 100 100 100 100 100 100 100
24 19 15 13 13 13 13 13 13 12 13 10 6 6 8 8 13 13 13 14 17 17 16 55 49 65 100 100 100 100 100 100 100 100 100 100 100 100 100 100 100 100 100
Wind_Speed
50 53 54 52 46 41 38 36 35 38 39 40 42 46 45 43 41 47 47 47 49 45 38 43 39 37 33 32 28 29 25 26 25 20 17 15 13 12 13 17 17 19 17
38 38 42 45 44 46 44 46 49 50 49 47 45 42 45 48 53 53 50 48 51 55 50 44 40 33 32 35 32 30 25 25 28 27 24 21 17 18 19 18 19 18 24
43 43 44 47 49 52 53 53 53 52 52 52 50 44 44 45 47 52 53 49 42 45 51 46 42 39 33 37 39 36 30 28 30 32 28 28 25 25 24 21 21 24 26
44 48 50 53 55 55 57 55 57 60 60 61 61 61 54 52 51 53 59 50 46 51 54 47 44 44 41 41 40 42 41 36 32 33 34 32 32 27 29 26 25 24 29
53 55 56 58 59 61 61 62 61 59 59 56 62 68 66 62 60 60 57 58 59 58 53 55 46 48 51 47 47 47 47 45 40 39 38 37 37 36 35 30 27 29 26
56 58 60 61 64 67 67 72 72 70 66 67 70 67 69 69 66 61 58 59 59 59 56 58 65 58 54 51 49 43 48 52 53 51 48 40 42 41 40 34 32 31 27
60 61 63 68 67 64 66 69 73 77 71 74 76 78 75 72 73 70 64 61 59 58 57 60 66 63 54 47 45 44 36 52 56 56 50 50 45 45 44 40 37 37 34
66 67 68 70 75 80 83 84 83 82 83 86 84 85 83 78 80 74 75 67 59 59 51 56 57 53 50 46 47 44 42 40 49 54 53 54 52 50 48 45 45 45 38
74 77 76 79 85 86 87 89 91 93 94 95 98 96 90 91 81 78 87 78 67 65 60 60 56 47 45 47 50 45 45 48 42 45 50 54 56 56 52 50 51 47 42
82 86 88 91 92 94 94 95 100 104 101 102 106 104 105 95 90 72 84 88 77 72 65 52 56 63 65 59 52 49 50 53 47 49 45 47 55 57 58 55 50 51 49
90 93 94 97 100 101 104 105 108 108 113 115 114 115 113 108 105 86 101 97 87 83 72 61 60 71 78 68 61 54 56 54 53 46 45 46 47 52 56 56 56 54 55
94 100 105 109 112 115 115 116 118 125 127 129 130 127 129 127 123 110 109 85 78 81 73 71 68 70 73 65 71 48 43 52 57 51 46 45 42 37 41 49 49 55 62
100 106 111 114 120 125 128 133 136 138 140 144 139 137 134 132 132 128 118 104 103 96 76 86 85 72 72 74 67 66 61 58 64 61 62 56 53 52 46 41 38 42 62
113 117 121 125 129 133 137 139 141 139 143 142 140 141 137 129 126 124 124 116 108 117 109 95 92 93 81 78 73 75 77 70 68 65 64 64 66 66 62 55 50 51 46
125 128 129 134 137 137 134 127 118 113 114 116 119 122 119 118 121 122 122 123 115 108 116 114 110 105 99 93 93 90 87 85 73 77 65 62 63 65 62 50 50 48 43
132 137 135 135 123 109 99 93 91 92 94 95 99 98 93 93 101 120 119 100 132 121 112 112 111 109 109 106 99 99 91 91 77 76 80 76 70 66 55 55 51 52 47
139 139 132 113 102 90 84 78 74 75 78 80 81 81 76 80 85 97 105 125 133 128 121 113 114 122 113 113 109 106 99 97 94 78 79 78 79 78 73 57 56 55 46
140 133 109 96 83 78 71 67 64 67 68 70 72 70 65 71 75 86 101 111 115 121 125 118 122 125 123 118 111 109 111 99 91 79 84 81 75 62 71 65 55 58 54
137 111 96 81 74 69 66 63 58 57 58 56 61 62 59 65 68 74 90 105 110 108 113 115 120 126 124 123 117 112 118 112 100 84 80 84 84 76 66 60 53 61 62
118 102 88 75 72 67 62 59 53 46 47 48 51 56 56 60 63 69 80 95 100 98 102 97 105 125 128 126 121 117 115 113 107 98 96 100 93 93 89 72 62 69 58
112 99 85 77 71 65 59 52 47 45 40 40 44 49 53 56 61 68 73 86 95 90 89 88 90 109 117 115 118 123 109 99 97 109 103 98 92 70 69 70 67 69 62
106 96 84 77 71 64 58 51 44 40 40 37 39 45 51 52 57 62 69 79 93 103 100 99 100 98 87 107 109 109 104 100 84 88 104 106 97 92 66 69 69 64 64
100 92 81 75 69 64 56 50 45 39 38 38 38 42 48 51 57 65 71 79 88 98 105 104 102 95 91 95 106 92 82 89 88 92 99 98 91 79 78 78 81 76 72
92 86 79 72 65 60 56 49 45 41 37 37 39 41 46 52 59 65 71 75 83 94 106 111 106 105 101 88 94 93 88 78 78 91 88 83 85 88 82 85 84 77 72
86 82 77 71 63 57 53 49 45 42 40 36 38 41 45 51 56 64 70 77 81 86 93 109 114 114 114 105 96 97 95 85 86 77 85 74 81 80 88 83 81 85 80
80 78 73 69 61 55 52 49 45 43 41 39 38 40 45 50 57 64 70 77 84 86 84 95 100 96 108 102 102 111 99 102 107 103 86 81 85 86 86 84 82 81 72
Wind_Direction
271 270 275 278 280 287 286 293 282 274 277 278 284 287 287 300 297 297 297 294 300 301 305 303 302 294 285 286 284 287 281 283 276 258 268 260 276 287 297 308 317 322 320
278 277 277 277 279 278 277 280 280 276 274 277 277 277 285 293 294 292 291 294 296 295 295 298 298 295 283 278 283 280 266 280 268 258 263 261 260 274 279 289 294 308 315
283 279 269 266 266 267 268 267 267 268 272 274 276 273 268 278 278 279 283 291 295 299 299 291 290 288 282 281 275 272 268 269 272 262 263 261 259 259 264 281 275 291 305
276 276 277 277 277 275 273 273 273 275 272 270 270 272 268 266 266 267 274 279 284 290 298 292 291 288 284 289 280 270 268 268 267 270 265 268 265 257 261 274 268 272 296
281 278 275 274 276 276 276 275 275 274 274 274 269 267 270 268 269 266 268 268 275 280 288 288 285 286 282 286 284 280 264 256 259 267 270 260 265 257 257 260 266 270 278
284 286 281 280 278 274 272 275 274 274 272 273 274 269 265 270 272 271 270 267 267 276 279 279 280 278 273 277 283 274 265 252 258 260 260 266 258 253 255 253 252 262 267
281 286 277 278 280 280 277 275 275 268 271 275 280 276 268 267 267 268 268 261 263 266 271 273 280 273 269 271 272 273 276 265 258 258 258 259 259 250 249 254 246 253 261
290 288 285 283 284 285 285 282 280 276 277 269 273 274 268 264 263 262 266 260 257 266 266 264 275 273 265 267 270 272 278 278 267 264 260 252 258 252 248 250 253 252 262
292 291 289 288 287 286 283 280 277 276 276 276 277 278 272 264 261 266 267 261 255 255 260 265 269 269 272 271 268 271 269 277 280 263 259 254 252 257 255 252 256 258 258
294 292 290 291 290 286 282 280 280 279 277 274 273 273 272 265 259 257 263 255 259 260 252 249 269 259 273 272 258 266 266 276 267 270 264 260 253 257 258 255 258 258 260
293 291 290 287 284 284 281 277 279 278 276 275 277 274 269 265 259 253 263 255 258 253 244 248 230 249 260 259 259 257 263 265 270 272 263 254 256 259 258 257 256 261 260
288 288 290 289 288 286 283 282 282 280 277 276 273 272 269 268 268 258 255 251 256 253 239 236 241 252 240 241 244 257 265 262 269 261 251 250 251 252 258 260 264 262 259
289 290 289 287 288 288 285 282 278 275 272 273 272 269 265 263 266 267 260 248 244 246 250 231 242 235 235 235 238 254 255 260 260 265 264 250 253 257 260 262 268 267 256
299 296 294 290 286 283 280 278 277 275 274 272 269 266 263 261 259 257 260 259 249 244 246 239 240 237 234 233 236 247 255 256 257 264 268 264 259 263 262 273 263 263 264
299 296 293 292 290 287 285 281 277 273 270 268 266 265 261 258 254 252 248 253 249 240 244 243 243 241 240 238 243 248 250 254 253 256 264 265 262 258 253 261 259 263 268
297 297 297 295 293 290 287 283 278 273 269 266 264 262 260 254 248 242 247 241 249 243 239 239 241 238 238 241 243 246 251 251 251 255 259 264 259 264 260 260 266 267 270
298 299 304 301 296 292 289 285 279 272 269 266 262 261 257 251 246 242 241 232 240 244 242 237 234 237 240 242 241 243 245 251 255 259 257 257 259 260 267 261 265 263 257
302 306 306 302 297 294 292 288 283 277 270 266 263 259 251 246 238 235 239 240 240 240 244 239 234 237 241 240 239 242 244 248 254 252 250 253 256 260 256 265 255 259 250
306 309 308 303 301 299 296 293 287 277 271 264 260 258 248 241 236 231 229 234 238 239 242 241 237 239 239 237 241 243 244 246 248 249 246 252 254 255 261 251 257 248 252
308 311 310 306 306 302 299 296 288 276 270 265 257 253 247 240 233 228 223 226 232 234 237 239 239 238 240 240 242 244 247 248 247 249 250 254 254 256 258 257 249 254 254
310 312 311 310 307 302 299 296 291 284 274 266 257 249 244 237 231 227 226 223 226 225 222 223 218 232 239 242 243 245 251 253 254 251 253 254 255 257 251 257 247 247 253
309 309 310 309 306 303 301 298 292 286 279 269 257 246 240 235 231 225 223 222 220 220 218 223 225 225 228 235 239 239 235 244 247 246 252 257 255 255 248 244 242 249 252
305 306 307 307 304 302 300 297 293 286 277 269 256 247 238 229 224 221 218 221 223 217 216 217 222 226 224 232 237 234 233 231 235 245 251 249 257 244 246 245 247 253 252
302 302 303 304 302 299 297 295 291 285 277 268 256 246 237 231 226 221 219 219 221 218 217 218 222 221 230 226 217 230 227 233 231 230 236 243 239 246 244 244 248 251 250
298 298 300 301 299 297 294 291 288 283 278 268 259 248 238 233 228 225 222 218 221 221 220 218 224 226 227 223 226 214 211 218 226 231 234 242 244 241 242 248 249 249 253
295 295 296 296 296 294 291 287 285 281 277 270 259 247 242 234 230 230 226 222 222 224 221 218 221 220 219 221 217 220 225 220 221 228 235 235 239 241 244 243 247 251 251